Weather History for North Las Vegas, NV

Change the Weather History Date:

Friday, December 12, 2014

  Actual Average Record
Temperature  
Mean Temperature 54 °F -  
Max Temperature 61 °F 59 °F 78 °F (1958)
Min Temperature 46 °F 36 °F 17 °F (1953)
Degree Days  
Heating Degree Days 12    
Growing Degree Days 4 (Base 50)    
Moisture  
Dew Point 41 °F    
Average Humidity 68    
Maximum Humidity 86    
Minimum Humidity 44    
Precipitation  
Precipitation 0.07 in - - ()
Sea Level Pressure  
Sea Level Pressure 29.96 in    
Wind  
Wind Speed 7 mph (SSE)    
Max Wind Speed 18 mph    
Max Gust Speed 25 mph    
Visibility 10 miles    
Events Rain    
Averages and records for this station are not official NWS values.
T = Trace of Precipitation, MM = Missing Value Source: NWS Daily Summary

Daily Weather History Graph

Daily Weather History Graph

Search for Another Location

Airport:

Trip Planner

Search our weather history database for the weather conditions in past years. The results will help you decide how hot, cold, wet, or windy it might be!

Date:

Astronomy

Dec. 12, 2014 Rise Set
Actual Time 6:42 AM PST 4:26 PM PST
Civil Twilight 6:13 AM PST 4:55 PM PST
Nautical Twilight 5:41 AM PST 5:27 PM PST
Astronomical Twilight 5:10 AM PST 5:58 PM PST
Moon 10:28 PM PST (12/12) 10:46 AM PST (12/12)
Length of Visible Light 10h 41m
Length of Day
9h 43m
Waning Gibbous, 66% of the Moon is Illuminated
Dec 12
Waning Gibbous
Dec 14
Last Quarter
Dec 21
New
Dec 28
First Quarter
Jan 4
Full

Hourly Weather History & Observations

Time (PST) Temp. Windchill Dew Point Humidity Pressure Visibility Wind Dir Wind Speed Gust Speed Precip Events Conditions
12:53 AM 48.9 °F - 37.9 °F 66% 29.98 in 10.0 mi Calm Calm - N/A   Clear
1:53 AM 46.9 °F - 37.9 °F 71% 29.99 in 10.0 mi NW 4.6 mph - N/A   Clear
2:53 AM 46.0 °F 44.8 °F 37.0 °F 71% 29.98 in 10.0 mi WNW 3.5 mph - N/A   Clear
3:53 AM 48.0 °F - 37.0 °F 66% 29.95 in 10.0 mi SE 8.1 mph - N/A   Clear
4:53 AM 51.1 °F - 37.9 °F 61% 29.95 in 10.0 mi Calm Calm - N/A   Clear
5:53 AM 51.1 °F - 39.0 °F 63% 29.95 in 10.0 mi East 11.5 mph - N/A   Clear
6:53 AM 53.1 °F - 39.0 °F 59% 29.94 in 10.0 mi SE 3.5 mph - N/A   Clear
7:53 AM 54.0 °F - 39.0 °F 57% 29.95 in 10.0 mi WSW 3.5 mph - N/A   Clear
8:53 AM 55.9 °F - 39.9 °F 55% 29.93 in 10.0 mi ESE 9.2 mph - N/A   Clear
9:53 AM 59.0 °F - 39.9 °F 49% 29.94 in 10.0 mi Calm Calm - N/A   Scattered Clouds
10:19 AM 61.0 °F - 39.0 °F 44% 29.89 in 10.0 mi SSE 18.4 mph - N/A   Mostly Cloudy
10:53 AM 61.0 °F - 39.0 °F 44% 29.91 in 10.0 mi SSE 13.8 mph - N/A   Overcast
11:21 AM 59.0 °F - 37.0 °F 44% 29.88 in 10.0 mi WSW 9.2 mph - N/A   Overcast
11:53 AM 55.9 °F - 39.9 °F 55% 29.93 in 9.0 mi WSW 16.1 mph 25.3 mph 0.00 in Rain Light Rain
12:53 PM 53.1 °F - 43.0 °F 69% 29.95 in 10.0 mi SSW 11.5 mph - 0.01 in Rain Light Rain
1:53 PM 51.1 °F - 42.1 °F 71% 29.94 in 10.0 mi SSW 16.1 mph - 0.04 in Rain Light Rain
2:53 PM 51.1 °F - 41.0 °F 68% 29.95 in 10.0 mi SW 12.7 mph - 0.01 in   Overcast
3:53 PM 50.0 °F - 43.0 °F 77% 29.94 in 10.0 mi ESE 11.5 mph - 0.00 in   Overcast
4:53 PM 48.9 °F - 44.1 °F 83% 29.96 in 10.0 mi ESE 9.2 mph - N/A   Overcast
5:53 PM 48.9 °F - 43.0 °F 80% 29.97 in 10.0 mi ESE 8.1 mph - N/A   Scattered Clouds
6:53 PM 48.0 °F - 43.0 °F 83% 29.99 in 10.0 mi SSE 6.9 mph - N/A   Mostly Cloudy
7:53 PM 48.0 °F - 44.1 °F 86% 29.99 in 10.0 mi SE 13.8 mph - 0.01 in   Mostly Cloudy
8:53 PM 48.0 °F - 44.1 °F 86% 29.99 in 10.0 mi SE 8.1 mph - N/A   Partly Cloudy
9:53 PM 46.0 °F 41.4 °F 42.1 °F 86% 30.00 in 10.0 mi ENE 9.2 mph - N/A   Clear
10:53 PM 46.0 °F 41.9 °F 42.1 °F 86% 29.99 in 10.0 mi ENE 8.1 mph - N/A   Clear
11:53 PM 46.0 °F 40.2 °F 42.1 °F 86% 30.00 in 10.0 mi East 12.7 mph - N/A   Clear